Address 0x0d0707963952f2fba59dd06f2b425ace40b492fe 22

Txn Hash Method
Block
From
To
Value [Txn Fee]
0x0e0a7533b8df0d6e824a5992939267313cc9b15aff2d371ab6a1337059fa1edeTransfer40806392022-08-09 13:05:0528 mins ago0x0d0707963952f2fba59dd06f2b425ace40b492feOUT0x404f1339dde9061bf88cda195b5c80364606a6b62,058.72624 CRO0.1038284457550
0xce0415367ec6e27af302c04d36c9c0fb72e958e9e3d08b566492fc93292a0aa8Transfer40797852022-08-09 11:44:201 hr 49 mins ago0x0d0707963952f2fba59dd06f2b425ace40b492feOUT0x404f1339dde9061bf88cda195b5c80364606a6b657.26718 CRO0.1038292382070
0x9897fb750e27f3c5b7460b3255f19b94a7126d342d6c462de32cfa2eb8cdca6fTransfer40797332022-08-09 11:39:251 hr 53 mins ago0x0d0707963952f2fba59dd06f2b425ace40b492feOUT0x210caf629c1316c5e5d828baf37dbb6724bc26671,383.130146 CRO0.1038292852340
0xc6727fe1caa146fe41c1ca31bc461391867ab177ad6c129f4241ea582535e98dTransfer40789792022-08-09 10:28:093 hrs 5 mins ago0x0d0707963952f2fba59dd06f2b425ace40b492feOUT0x6103926bc185743c32fa9b9d6a4392ad714dae47388.326 CRO0.1038300119620
0xcd54e8ff4d0ef89e4287c217d572911b6cc2613d6f42715eee48f4f285100314Transfer40789142022-08-09 10:21:593 hrs 11 mins ago0x4c03fc6767691fa84921534219743e65bf3a278c IN 0x0d0707963952f2fba59dd06f2b425ace40b492fe151.527019530444584 CRO0.1038300782590
0xb77597dd5b0073a6f1f1bd7dc26da1008ad32b8c0dffbf62d8510920980ea402Transfer40789132022-08-09 10:21:543 hrs 11 mins ago0x0d06d0806c2d9bfe5bfe4f3bcca3b1345e4dae67 IN 0x0d0707963952f2fba59dd06f2b425ace40b492fe209.377019530444584 CRO0.1038300782590
0xfc7090f93e787f7f1ce18301ff508c019b3e1b9e6e5a9ac8d8a05cb7b617bb15Transfer40789112022-08-09 10:21:423 hrs 11 mins ago0x69e64d633f75a30c3d8edf1b444b3eff37b3cfef IN 0x0d0707963952f2fba59dd06f2b425ace40b492fe219.896206613870854 CRO0.1038300782590
0xcaa2e7594fda785d5b5037a71846324026d53cbe23f4ecf53681aebc1b5ea318Transfer40789112022-08-09 10:21:423 hrs 11 mins ago0x8921a9f4b308daa93b90bd185d75271a5d2c22bb IN 0x0d0707963952f2fba59dd06f2b425ace40b492fe498.732364692180403 CRO0.1038300782590
0xed274ad52c64de6b34a61a29eae307024aa50f8d6d7539ebd70d6525619abad7Transfer40789112022-08-09 10:21:423 hrs 11 mins ago0x572a2940aa2e6475e46cc4f4d07add26df827504 IN 0x0d0707963952f2fba59dd06f2b425ace40b492fe649.247019530444584 CRO0.1038300782590
0xf18f2303c42c7c20d812170bae25357392db5c81706108429d2a9c706f94526cTransfer40789102022-08-09 10:21:363 hrs 11 mins ago0x6b107244bc94f4e748380fa08b581bcc57fca9e2 IN 0x0d0707963952f2fba59dd06f2b425ace40b492fe767.056135278055534 CRO0.1038300782590
0xcc697d80b7efb2365969b31f8c737966b923ca4fa2ad747fc6719f079577817fTransfer40789092022-08-09 10:21:313 hrs 11 mins ago0x0d0707963952f2fba59dd06f2b425ace40b492feOUT0x36eb91cdc61483f903b4fd80899e0ba1a324666f778.7613 CRO0.1038300791670
0xe708599ec23ddb3f597259b7e612f8a9fef99f77879fc96e5c92a6f2f9e5c14fTransfer40789092022-08-09 10:21:313 hrs 11 mins ago0x897834d029c8d387690ba226647a578768548359 IN 0x0d0707963952f2fba59dd06f2b425ace40b492fe799.897483414103009 CRO0.1038300782590
0x8c61886d2863eab2f8c2d556a5182c3cc5bc0c3b2fb9a7e626130bbf52ecbe35Transfer40789072022-08-09 10:21:203 hrs 12 mins ago0x140c3ac5359a38c17737dbd593f1ea434661c630 IN 0x0d0707963952f2fba59dd06f2b425ace40b492fe1,039.896206545400312 CRO0.103830089670
0xa6ad107ed8b0e2f6b2f202a46299377a2edeeea7ae907f01b26b8908114396f0Transfer40789002022-08-09 10:20:403 hrs 12 mins ago0x7f9eabc365534c97f2153329128228cd18866465 IN 0x0d0707963952f2fba59dd06f2b425ace40b492fe1,049.377019461974042 CRO0.103830089670
0x039f788f5b4f69cda8a61d219785cfd3dff02ec056a071373db3109a36eb4f65Transfer40788992022-08-09 10:20:343 hrs 12 mins ago0xc7b12b9fdc17eb30bf81e444cb1f27f5c0cc2e1d IN 0x0d0707963952f2fba59dd06f2b425ace40b492fe2,589.377019461974042 CRO0.103830089670
0xa73c5a25aa76fb88b9d202965a90354764c096eb958c7516e3baabeae5f0b5ebTransfer40788992022-08-09 10:20:343 hrs 12 mins ago0xbb03cdab925cb1fb0f451891e65d6472e9aa284c IN 0x0d0707963952f2fba59dd06f2b425ace40b492fe3,236.693618111974042 CRO0.103830089670
0x83d01eedd2f7038e42df30072f83b2423e2423b23c5390602db738b45455d988Transfer40788982022-08-09 10:20:283 hrs 12 mins ago0x81e81dfd8e0504af69871beda6db94bd5eaf40d7 IN 0x0d0707963952f2fba59dd06f2b425ace40b492fe3,902.515471683995592 CRO0.103830089670
0x6da63cc218f63085db67edbc548ba6e282da2ad5e894da243657f598872fc01aTransfer40788972022-08-09 10:20:233 hrs 13 mins ago0xb8378c4b0482a04720532f89b675a70c5227003f IN 0x0d0707963952f2fba59dd06f2b425ace40b492fe14,170.577019461974042 CRO0.103830089670
0x10ca77cf6d66c94c5a1e7c2a0c85648c327d2bdc78df3f73a3f4c38c10f569e0Transfer40787292022-08-09 10:04:273 hrs 28 mins ago0x0d0707963952f2fba59dd06f2b425ace40b492feOUT0x0956d6a17cde63985f60bfd82f6c09969489bf40120 CRO0.1038302481760
0x766178d3793a9883c097838aa63896a9a69566e4c720b62135ca99c54640667bTransfer40785892022-08-09 9:51:113 hrs 42 mins ago0x0d0707963952f2fba59dd06f2b425ace40b492feOUT0xea7bf1cb2a806f61f910828e7f6a6e0d135a737b317.62742 CRO0.1038303802530
0x76fc03798060b1df0def00d36b40fecce046f1e737aca6ba75d1fc01ce244645Transfer40769692022-08-09 7:17:216 hrs 16 mins ago0x0d0707963952f2fba59dd06f2b425ace40b492feOUT0x96012bc3874f952b44e67919638b22fe9fa47686498.047224 CRO0.1038319115040
0xc251a7b6c99df615b54f4808e0c9145d54839a4334d555f36cc1bc40a7c75144Transfer40764412022-08-09 6:27:287 hrs 5 mins ago0x0d0707963952f2fba59dd06f2b425ace40b492feOUT0xea4c232fde13fb8c0e892693d747b8918eec54a932,152 CRO0.1038324153240
0x313345a1f1485218780dc77dae0caddf013a3b0df43a5957cfe36e143b103a27Transfer40743642022-08-09 3:11:2610 hrs 21 mins ago0x0d0707963952f2fba59dd06f2b425ace40b492feOUT0x812604dfb4e23d1c0c83e6ffb7e202354bad003835.06368 CRO0.1038344227610
0xf055cdd1148c80525a23bd89d1ef2cb1749649c1fb160be1e03af0e733405f46Transfer40742802022-08-09 3:03:2810 hrs 29 mins ago0x0d0707963952f2fba59dd06f2b425ace40b492feOUT0x64f082e08b5545d4c5ceb7426b991e51dd9d8ac03,666 CRO0.1038345032370
0x850e59ff2c73ce099c25bff6b825e17962bf5c1ccdcfb9e47f161b4d442ef5c9Transfer40731522022-08-09 1:17:0312 hrs 16 mins ago0x0d0707963952f2fba59dd06f2b425ace40b492feOUT0x916bb136b2a7e5b6e145c01e5b2c065cdbf24d96187.35848 CRO0.1038355946250
[ Download CSV Export 
Parent Txn Hash Block From To Value
Loading

Contract Name:
0

Compiler Version
0

Optimization Enabled:
0

Other Settings:
-NA-
Block Transaction Gas Used Reward
Age Block Fee Address BC Fee Address Voting Power Jailed Incoming
Block Uncle Number Difficulty Gas Used Reward
Loading
Make sure to use the "Vote Down" button for any spammy posts, and the "Vote Up" for interesting conversations.